EEST,Max TemperatureF,Mean TemperatureF,Min TemperatureF,Max Dew PointF,MeanDew PointF,Min DewpointF,Max Humidity, Mean Humidity, Min Humidity, Max Sea Level PressureIn, Mean Sea Level PressureIn, Min Sea Level PressureIn, Max VisibilityMiles, Mean VisibilityMiles, Min VisibilityMiles, Max Wind SpeedMPH, Mean Wind SpeedMPH, Max Gust SpeedMPH,PrecipitationIn, CloudCover, Events, WindDirDegrees
2013-3-1,61,50,39,50,41,32,100,75,21,29.98,29.92,29.86,12,6,6,13,5,,0.00,5,,8
2013-3-2,63,52,41,45,40,34,93,65,27,30.07,30.04,29.98,6,6,6,10,6,,0.00,2,,40
2013-3-3,65,56,47,45,40,37,87,53,28,30.06,29.86,29.68,6,6,6,32,15,44,0.00,5,,26
2013-3-4,65,58,50,52,47,39,100,70,34,29.86,29.75,29.62,6,6,6,14,9,,0.00,6,Rain-Thunderstorm,108
2013-3-5,61,51,41,46,30,16,82,46,19,30.18,29.99,29.86,12,6,6,31,14,45,0.00,3,,5
2013-3-6,59,48,36,32,21,16,75,37,12,30.32,30.25,30.18,6,6,6,25,15,,0.00,3,,8
2013-3-7,63,48,32,38,28,18,81,50,13,30.30,30.21,30.12,6,6,6,8,4,,0.00,,,54
2013-3-8,62,52,41,37,29,25,76,38,18,30.12,30.02,29.95,12,6,6,21,11,,0.00,6,,37
2013-3-9,68,57,46,43,32,27,87,40,15,29.95,29.90,29.86,12,7,6,18,11,,0.00,6,,45
2013-3-10,64,55,46,55,47,41,94,75,51,29.96,29.93,29.89,12,6,6,13,6,,0.08,5,Rain,97
2013-3-11,64,56,48,57,54,48,100,88,69,29.98,29.94,29.92,12,6,6,12,5,,0.00,5,,100
2013-3-12,67,60,52,59,54,52,100,83,60,29.95,29.87,29.77,12,6,6,9,6,,0.00,6,,32
2013-3-13,74,63,52,60,56,52,100,80,46,29.89,29.79,29.71,6,6,6,15,6,,0.00,6,,166
2013-3-14,70,60,50,59,53,50,100,78,44,29.95,29.92,29.89,6,6,6,9,5,,0.00,5,,77
2013-3-15,81,68,55,55,47,41,77,46,17,29.89,29.76,29.62,12,6,4,18,9,,0.00,6,,31
2013-3-16,66,60,53,61,51,43,100,69,42,29.83,29.76,29.62,12,6,3,17,9,,0.00,4,,179
2013-3-17,65,56,46,48,40,27,100,58,31,29.92,29.79,29.74,12,6,6,17,6,,0.00,4,Thunderstorm,74
2013-3-18,63,51,39,36,29,21,87,46,14,30.08,30.03,29.92,6,6,6,13,7,,0.00,2,,22
2013-3-19,62,50,37,41,33,28,81,53,18,30.06,30.02,29.98,6,6,6,13,6,,0.00,,,26
2013-3-20,71,56,41,41,36,32,87,51,15,30.04,30.00,29.95,12,8,6,9,4,,0.00,,,359
2013-3-21,74,56,39,48,41,36,93,59,18,30.06,30.00,29.92,12,8,6,9,5,,0.00,,,10
2013-3-22,75,64,52,61,46,37,100,55,17,29.89,29.55,29.33,6,6,4,26,12,29,0.04,6,Rain-Thunderstorm,101
2013-3-23,64,55,46,55,35,27,100,49,16,29.86,29.66,29.42,6,6,6,21,10,23,0.00,3,,335
2013-3-24,63,51,39,41,32,26,93,49,16,30.12,30.02,29.86,12,7,6,17,9,,0.00,1,,51
2013-3-25,71,54,38,45,38,30,93,58,20,30.18,30.09,30.01,12,8,6,10,6,,0.00,,,38
2013-3-26,72,62,52,45,40,37,62,46,23,30.01,29.80,29.59,6,6,6,20,9,,0.00,6,,29
2013-3-27,69,62,55,61,55,41,100,78,51,29.95,29.78,29.65,6,6,6,22,7,30,0.00,6,,146
2013-3-28,62,58,55,61,57,54,100,96,82,30.01,29.96,29.92,6,5,1,15,7,,2.64,6,Rain-Thunderstorm,116
2013-3-29,77,65,53,59,56,52,100,81,43,30.06,30.03,30.01,6,6,6,10,6,,0.00,4,,114
2013-3-30,77,63,49,57,51,43,100,69,24,30.06,30.02,29.98,6,6,6,10,5,,0.00,3,,36
2013-3-31,81,70,59,61,52,46,73,53,27,30.01,29.95,29.92,6,6,6,18,10,,0.00,,,36
2013-4-1,,,,,,,,,,,,,,,,,,,,,,